Flag for U.S.A. Weather past 2 weeks in Worcester, Massachusetts, U.S.A.

Now
37 °F

Clear.


Feels Like: 31 °F
Forecast: 37 / 67 °F
Wind: 8 mph from West

Location: Worcester Regional Airport


UV Index: 5 (Moderate)

Visibility: 10 mi


Pressure: 30.31 "Hg

Humidity: 65%

Dew point: 26 °F

Location of WorcesterLocation

Historic Weather in Worcester

°F

Worcester temperature yesterday

Maximum temperature yesterday: 55 °F (at 4:54 PM)
Minimum temperature yesterday: 37 °F (at 4:54 AM)
Average temperature yesterday: 45 °F

Past Weeks' High & Low Weather Summary

 TemperatureHumidityPressure
High71 °F (Apr 14, 11:54 AM)100% (Apr 8, 12:54 AM)30.78 "Hg (Apr 8, 12:54 AM)
Low24 °F (Apr 17, 5:54 AM)19% (Apr 10, 1:54 PM)29.32 "Hg (Apr 8, 4:54 PM)
Average46 °F59%30.09 "Hg
* Reported Apr 5 11:54 PM — Apr 20 11:54 PM, Worcester, Weather by CustomWeather, © 2014

Note: Actual official high and low records may vary slightly from our data, if they occured in-between our weather recording intervals... More about our weather records

Advertising

Historic Weather Conditions — Data for Previous 24 hours

 ConditionsComfort  
Time TempWeatherWind HumidityBarometerVisibility
11:54 PM
Apr 20
38 °FClear.8 mph63%30.34 "Hg10 mi
10:54 PM40 °FClear.10 mph60%30.36 "Hg10 mi
9:54 PM43 °FClear.8 mph53%30.37 "Hg10 mi
8:54 PM46 °FClear.12 mph48%30.38 "Hg10 mi
7:54 PM49 °FSunny.9 mph41%30.39 "Hg10 mi
6:54 PM53 °FSunny.8 mph23%30.38 "Hg10 mi
5:54 PM54 °FSunny.12 mph20%30.39 "Hg10 mi
4:54 PM55 °FSunny.N/A21%30.40 "Hg10 mi
3:54 PM54 °FSunny.3 mph20%30.42 "Hg10 mi
2:54 PM53 °FSunny.N/A22%30.44 "Hg10 mi
1:54 PM52 °FSunny.8 mph24%30.45 "Hg10 mi
12:54 PM50 °FSunny.5 mph24%30.47 "Hg10 mi
11:54 AM48 °FSunny.6 mph25%30.49 "Hg10 mi
10:54 AM47 °FSunny.8 mph24%30.50 "Hg10 mi
9:54 AM45 °FSunny.10 mph28%30.51 "Hg10 mi
8:54 AM43 °FSunny.8 mph34%30.50 "Hg10 mi
7:54 AM41 °FSunny.7 mph41%30.50 "Hg10 mi
6:54 AM38 °FClear.9 mph48%30.49 "Hg10 mi
5:54 AM37 °FClear.7 mph52%30.47 "Hg10 mi
4:54 AM37 °FClear.8 mph52%30.44 "Hg10 mi
3:54 AM38 °FClear.5 mph51%30.42 "Hg10 mi
2:54 AM38 °FClear.6 mph53%30.42 "Hg10 mi
1:54 AM39 °FClear.8 mph50%30.42 "Hg10 mi
Weather by CustomWeather, © 2014

See weather overview